Regional Weather Roundup
Issued by NWS

Home | Current Version | Previous Version | Graphics & Text | Print | Product List | Glossary On
Versions: 1 2 3 4 5 6 7 8 9 10 11 12 13 14 15 16 17 18 19 20 21 22 23 24 25 26 27 28 29 30 31 32 33 34 35 36 37 38 39 40 41 42 43 44 45 46 47 48 49 50
000
ASUS43 KLSX 011107
RWRMO

WEATHER SUMMARY FOR MISSOURI
NATIONAL WEATHER SERVICE SPRINGFIELD MO
500 AM CST SUN MAR 01 2015

NOTE: "FAIR" INDICATES FEW OR NO CLOUDS BELOW 12,000 FEET WITH NO
       SIGNIFICANT WEATHER AND/OR OBSTRUCTIONS TO VISIBILITY.
       CURRENT SKY AND/OR WEATHER CONDITIONS ARE NOT AVAILABLE FOR
       CHILLICOTHE AND FARMINGTON.

MOZ001>031-035>038-043-044-053-054-011200-
...NORTHERN AND WESTERN MISSOURI...

CITY           SKY/WX    TMP DP  RH WIND       PRES   REMARKS
KANSAS CTY INT LGT SNOW  22  20  92 CALM      30.35R FOG
KANSAS C DTWN  CLOUDY    24  20  84 CALM      30.36S
LEE`S SUMMIT   LGT SNOW  22  19  89 CALM      30.34S FOG
ST JOSEPH      CLOUDY    23  19  85 CALM      30.37R
CHILLICOTHE      N/A     22  19  89 CALM      30.37S
KIRKSVILLE     LGT SNOW  20  19  96 CALM      30.35S FOG

$$
MOZ066>068-077>081-088>096-101>105-011200-
...SOUTHWEST MISSOURI...

CITY           SKY/WX    TMP DP  RH WIND       PRES   REMARKS
SPRINGFIELD    CLOUDY    27  25  92 SW5       30.31S FOG     WCI  22
JOPLIN         CLOUDY    28  26  92 CALM      30.34R FOG

$$
MOZ032>034-039>042-045>050-055>058-069>072-011200-
...CENTRAL MISSOURI...

CITY           SKY/WX    TMP DP  RH WIND       PRES   REMARKS
COLUMBIA       LGT SNOW  24  22  91 CALM      30.34S FOG
JEFFERSON CITY CLOUDY    25  23  92 CALM      30.37S FOG
ROLLA          CLOUDY    26  24  92 CALM      30.31R FOG
SEDALIA        LGT SNOW  24  21  88 CALM      30.36R FOG
WHITEMAN AFB   LGT SNOW  23  21  92 N3        30.34S FOG
WARRENSBURG    LGT SNOW  23  21  93 CALM      30.36R
OSAGE BEACH    CLOUDY    27  23  86 CALM      30.34R

$$
MOZ051-052-059>065-011200-
...EAST CENTRAL MISSOURI...

CITY           SKY/WX    TMP DP  RH WIND       PRES   REMARKS
ST LOUIS INTL  FRZ DRZL  26  23  88 E3        30.36S FOG
SPIRIT OF STL  MIX PCPN  27  25  93 CALM      30.36S FOG
ST CHARLES     LGT SNOW  25  24  96 CALM      30.37S FOG

$$
MOZ072>076-082>087-097>100-106>115-011200-
...SOUTH CENTRAL AND SOUTHEAST MISSOURI...

CITY           SKY/WX    TMP DP  RH WIND       PRES   REMARKS
CAPE GIRARDEAU CLOUDY    33  27  78 SE13      30.34F WCI  24
FARMINGTON     CLOUDY    28  27  93 SE3       30.36R
POPLAR BLUFF   CLOUDY    31  26  82 SE3       30.34F
WEST PLAINS    FRZ RAIN  29  27  92 SW3       30.32R FOG

$$



USA.gov is the U.S. government's official web portal to all federal, state and local government web resources and services.